Showing default

COSMOS 1564, 15003

Orbit data source: Space-Track

COSMOS 1564, 15003 is a payload satellite owned by GUKOS (CIS) in LEO that was launched on Mon, 28 May 1984 UTC via a KOSMOS 11K65M launch vehicle from the Plesetsk Missile And Space Complex (PKMTR). Payload-class satellites include a variety of spacecraft equipped with specific instruments for various scientific and technological missions. These include communications satellites like Starlink; space stations such as the ISS; scientific satellites like the Hubble; Earth observation satellites from companies like Planet Labs, Umbra, and HawkEye 360; GPS; miniature CubeSats for education and research; and military/defense satellites.

Loading next visibility...
Identifier
15003, 1984-052F
Orbit
LEO
Country
Flag of CISCIS
Related business
Manufacturer
NPO PM
Mission
Spacecraft
Bus & Motor
STRELA-1 11F625, Unknown motor
Mass
60 kg wet, 60 kg dry
Launch date (UTC)
1984-05-28 (42 years ago)
Launch vehicle
KOSMOS 11K65M
Launch site
Plesetsk Missile And Space Complex (PKMTR)
Object type
Payload
Rocket body
Debris
Shape & HBR
Unknown
Radar Cross Section
Medium (>0.1 m² and <1 m²)

Expand to show TLE details & history
Last TLE update: 13 hours ago

TLE from 13 hours ago
0 COSMOS 1564
1 15003U 84052F   26132.53659727 -.00000027  00000-0 -67035-4 0  9992
2 15003  74.0128 225.5930 0032961 359.9603  11.2114 12.53584894919801
Epoch: 2026-05-12T12:52Z
TLE epoch observation values (Epoch: 2026-05-12T12:52:42.004Z)
Latitude
10.76471°
Longitude
165.21548°
Altitude
1,425.865 km
Speed
7.161 km/s
True Right ascension
15h 14m 48s
True Declination
10° 42' 26"
Sunlit
Object was in full shadow at epoch
Visualization orbit readout
Latitude
Unknown
Longitude
Unknown
Altitude
Unknown
Speed
Unknown
Apparent Right ascension
Unknown
Apparent Declination
Unknown
Sunlit
N/A
Visualization observer readout
Local Sidereal Time
10:11:41
Azimuth
Unknown
Elevation
Unknown
Doppler factor
Unknown
Orbital elements
Apogee altitude
1,473.162 km
Perigee altitude
1,421.575 km
Semi-major axis
7,825.505 km
Eccentricity
0.0033
Inclination
74.0128°
RAAN
225.593°
Arg. of periapsis
359.9603°
True anomaly
11.28513°
Mean anomaly
11.2114°
Eccentric anomaly
11.24824°
Mean motion
3.13527 °/min
Orbital period
114.82 mins
BSTAR
-0.000067035
Loading maneuver chart data...
Computing Atmospheric mass density...
Loading historical data...
Loading historical data...
Loading historical data...
Loading historical data...
Loading historical data...
Loading historical data...
Loading historical data...

Documentation

Showing up to 5 results
|